Time,TemperatureF,DewpointF,PressureIn,WindDirection,WindDirectionDegrees,WindSpeedMPH,WindSpeedGustMPH,Humidity,HourlyPrecipIn,Conditions,Clouds,dailyrainin,SoftwareType,DateUTC
2013-08-02 00:00:00,85.1,68.7,29.90,SSE,150,0.0,4.0,58,0.00,,SKC,0.00,VWS V14.01,2013-08-02 05:00:00,
2013-08-02 00:01:00,84.9,68.5,29.90,SSE,150,0.0,4.0,58,0.00,,SKC,0.00,VWS V14.01,2013-08-02 05:01:00,
2013-08-02 00:06:00,84.7,68.8,29.90,SSE,150,0.0,2.0,59,0.00,,SKC,0.00,VWS V14.01,2013-08-02 05:06:00,
2013-08-02 00:10:00,84.7,68.8,29.90,SSE,150,2.0,5.0,59,0.00,,SKC,0.00,VWS V14.01,2013-08-02 05:10:00,
2013-08-02 00:11:00,84.5,68.6,29.91,SSE,150,1.0,4.0,59,0.00,,SKC,0.00,VWS V14.01,2013-08-02 05:11:00,
2013-08-02 00:16:00,84.3,68.9,29.91,SSE,150,0.0,0.0,60,0.00,,SKC,0.00,VWS V14.01,2013-08-02 05:16:00,
2013-08-02 00:20:00,84.3,68.9,29.91,SSE,150,0.0,4.0,60,0.00,,SKC,0.00,VWS V14.01,2013-08-02 05:20:00,
2013-08-02 00:21:00,84.2,68.8,29.90,SSE,150,0.0,2.0,60,0.00,,SKC,0.00,VWS V14.01,2013-08-02 05:21:00,
2013-08-02 00:26:00,84.0,68.6,29.91,SSE,150,0.0,0.0,60,0.00,,SKC,0.00,VWS V14.01,2013-08-02 05:26:00,
2013-08-02 00:30:00,84.0,68.6,29.91,SSE,150,0.0,2.0,60,0.00,,SKC,0.00,VWS V14.01,2013-08-02 05:30:00,
2013-08-02 00:31:00,83.8,68.9,29.91,SSE,150,0.0,0.0,61,0.00,,SKC,0.00,VWS V14.01,2013-08-02 05:31:00,
2013-08-02 00:36:00,83.6,68.7,29.91,SSE,150,0.0,0.0,61,0.00,,SKC,0.00,VWS V14.01,2013-08-02 05:36:00,
2013-08-02 00:40:00,83.6,68.7,29.91,SSE,150,0.0,0.0,61,0.00,,SKC,0.00,VWS V14.01,2013-08-02 05:40:00,
2013-08-02 00:41:00,83.4,68.6,29.91,SSE,150,1.0,4.0,61,0.00,,SKC,0.00,VWS V14.01,2013-08-02 05:41:00,
2013-08-02 00:46:00,83.2,68.4,29.91,SSE,150,0.0,0.0,61,0.00,,SKC,0.00,VWS V14.01,2013-08-02 05:46:00,
2013-08-02 00:50:00,83.2,68.4,29.91,SSE,150,0.0,4.0,61,0.00,,SKC,0.00,VWS V14.01,2013-08-02 05:50:00,
2013-08-02 00:51:00,83.0,68.2,29.91,SSE,150,0.0,1.0,61,0.00,,SKC,0.00,VWS V14.01,2013-08-02 05:51:00,
2013-08-02 00:56:00,82.8,67.0,29.91,SSE,150,0.0,0.0,59,0.00,,SKC,0.00,VWS V14.01,2013-08-02 05:56:00,
2013-08-02 01:00:00,82.9,67.1,29.91,SSE,150,0.0,5.0,59,0.00,,SKC,0.00,VWS V14.01,2013-08-02 06:00:00,
2013-08-02 01:01:00,82.7,66.4,29.91,SSE,150,0.0,4.0,58,0.00,,SKC,0.00,VWS V14.01,2013-08-02 06:01:00,
2013-08-02 01:06:00,82.6,65.8,29.91,SSE,150,0.0,0.0,57,0.00,,SKC,0.00,VWS V14.01,2013-08-02 06:06:00,
2013-08-02 01:10:00,82.6,65.8,29.91,SSE,150,0.0,4.0,57,0.00,,SKC,0.00,VWS V14.01,2013-08-02 06:10:00,
2013-08-02 01:11:00,82.5,65.8,29.91,SSE,150,0.0,1.0,57,0.00,,SKC,0.00,VWS V14.01,2013-08-02 06:11:00,
2013-08-02 01:16:00,82.4,65.7,29.90,SSE,150,0.0,0.0,57,0.00,,SKC,0.00,VWS V14.01,2013-08-02 06:16:00,
2013-08-02 01:20:00,82.4,65.7,29.91,SSE,150,0.0,1.0,57,0.00,,SKC,0.00,VWS V14.01,2013-08-02 06:20:00,
2013-08-02 01:21:00,82.2,65.5,29.91,SSE,150,0.0,2.0,57,0.00,,SKC,0.00,VWS V14.01,2013-08-02 06:21:00,
2013-08-02 01:26:00,82.1,65.9,29.91,SSE,150,0.0,0.0,58,0.00,,SKC,0.00,VWS V14.01,2013-08-02 06:26:00,
2013-08-02 01:30:00,82.1,65.9,29.91,SSE,150,0.0,2.0,58,0.00,,SKC,0.00,VWS V14.01,2013-08-02 06:30:00,
2013-08-02 01:31:00,81.9,65.7,29.91,SSE,150,0.0,1.0,58,0.00,,SKC,0.00,VWS V14.01,2013-08-02 06:31:00,
2013-08-02 01:36:00,81.8,66.1,29.91,SSE,150,0.0,0.0,59,0.00,,SKC,0.00,VWS V14.01,2013-08-02 06:36:00,
2013-08-02 01:40:00,81.8,66.1,29.91,SSE,150,0.0,1.0,59,0.00,,SKC,0.00,VWS V14.01,2013-08-02 06:40:00,
2013-08-02 01:41:00,81.6,65.9,29.90,SSE,150,0.0,0.0,59,0.00,,SKC,0.00,VWS V14.01,2013-08-02 06:41:00,
2013-08-02 01:46:00,81.4,65.7,29.90,SSE,150,0.0,0.0,59,0.00,,SKC,0.00,VWS V14.01,2013-08-02 06:46:00,
2013-08-02 01:50:00,81.4,65.7,29.90,SSE,150,0.0,0.0,59,0.00,,SKC,0.00,VWS V14.01,2013-08-02 06:50:00,
2013-08-02 01:51:00,81.2,66.0,29.90,SSE,150,0.0,0.0,60,0.00,,SKC,0.00,VWS V14.01,2013-08-02 06:51:00,
2013-08-02 01:56:00,81.0,65.8,29.90,SSE,150,0.0,0.0,60,0.00,,SKC,0.00,VWS V14.01,2013-08-02 06:56:00,
2013-08-02 02:00:00,81.0,65.8,29.90,SSE,150,0.0,0.0,60,0.00,,SKC,0.00,VWS V14.01,2013-08-02 07:00:00,
2013-08-02 02:01:00,80.8,66.1,29.90,SSE,150,0.0,0.0,61,0.00,,SKC,0.00,VWS V14.01,2013-08-02 07:01:00,
2013-08-02 02:06:00,80.6,65.9,29.90,SSE,150,0.0,0.0,61,0.00,,SKC,0.00,VWS V14.01,2013-08-02 07:06:00,
2013-08-02 02:10:00,80.6,65.9,29.90,SSE,150,0.0,0.0,61,0.00,,SKC,0.00,VWS V14.01,2013-08-02 07:10:00,
2013-08-02 02:11:00,80.4,66.2,29.90,SSE,150,0.0,0.0,62,0.00,,SKC,0.00,VWS V14.01,2013-08-02 07:11:00,
2013-08-02 02:16:00,80.2,66.0,29.90,SSE,150,0.0,0.0,62,0.00,,SKC,0.00,VWS V14.01,2013-08-02 07:16:00,
2013-08-02 02:20:00,80.2,66.0,29.90,SSE,150,0.0,0.0,62,0.00,,SKC,0.00,VWS V14.01,2013-08-02 07:20:00,
2013-08-02 02:21:00,80.0,65.8,29.89,SSE,150,0.0,0.0,62,0.00,,SKC,0.00,VWS V14.01,2013-08-02 07:21:00,
2013-08-02 02:26:00,79.9,66.2,29.90,SSE,150,0.0,0.0,63,0.00,,SKC,0.00,VWS V14.01,2013-08-02 07:26:00,
2013-08-02 02:30:00,79.8,66.1,29.90,SSE,150,0.0,0.0,63,0.00,,SKC,0.00,VWS V14.01,2013-08-02 07:30:00,
2013-08-02 02:36:00,79.7,66.0,29.90,SSE,150,0.0,0.0,63,0.00,,SKC,0.00,VWS V14.01,2013-08-02 07:36:00,
2013-08-02 02:40:00,79.6,66.4,29.90,SSE,150,0.0,0.0,64,0.00,,SKC,0.00,VWS V14.01,2013-08-02 07:40:00,
2013-08-02 02:46:00,79.5,66.7,29.90,SSE,150,0.0,0.0,65,0.00,,SKC,0.00,VWS V14.01,2013-08-02 07:46:00,
2013-08-02 02:50:00,79.3,67.0,29.90,SSE,150,0.0,0.0,66,0.00,,SKC,0.00,VWS V14.01,2013-08-02 07:50:00,
2013-08-02 02:56:00,79.2,67.3,29.90,SSE,150,0.0,1.0,67,0.00,,SKC,0.00,VWS V14.01,2013-08-02 07:56:00,
2013-08-02 03:00:00,79.2,67.3,29.90,SSE,150,0.0,1.0,67,0.00,,SKC,0.00,VWS V14.01,2013-08-02 08:00:00,
2013-08-02 03:01:00,79.0,67.6,29.90,SSE,150,0.0,1.0,68,0.00,,SKC,0.00,VWS V14.01,2013-08-02 08:01:00,
2013-08-02 03:06:00,78.9,67.4,29.90,SSE,150,0.0,0.0,68,0.00,,SKC,0.00,VWS V14.01,2013-08-02 08:06:00,
2013-08-02 03:10:00,78.9,67.4,29.90,SSE,150,0.0,2.0,68,0.00,,SKC,0.00,VWS V14.01,2013-08-02 08:10:00,
2013-08-02 03:11:00,78.7,67.7,29.90,SSE,150,0.0,0.0,69,0.00,,SKC,0.00,VWS V14.01,2013-08-02 08:11:00,
2013-08-02 03:16:00,78.6,67.6,29.90,SSE,150,0.0,0.0,69,0.00,,SKC,0.00,VWS V14.01,2013-08-02 08:16:00,
2013-08-02 03:20:00,78.6,67.6,29.90,SSE,150,0.0,0.0,69,0.00,,SKC,0.00,VWS V14.01,2013-08-02 08:20:00,
2013-08-02 03:21:00,78.4,67.8,29.90,SSE,150,0.0,0.0,70,0.00,,SKC,0.00,VWS V14.01,2013-08-02 08:21:00,
2013-08-02 03:26:00,78.2,67.6,29.90,SSE,150,0.0,1.0,70,0.00,,SKC,0.00,VWS V14.01,2013-08-02 08:26:00,
2013-08-02 03:30:00,78.2,67.6,29.90,SSE,150,0.0,1.0,70,0.00,,SKC,0.00,VWS V14.01,2013-08-02 08:30:00,
2013-08-02 03:31:00,78.1,67.9,29.90,SSE,150,0.0,0.0,71,0.00,,SKC,0.00,VWS V14.01,2013-08-02 08:31:00,
2013-08-02 03:35:00,77.9,67.8,29.90,SSE,150,0.0,0.0,71,0.00,,SKC,0.00,VWS V14.01,2013-08-02 08:35:00,
2013-08-02 03:40:00,77.8,67.7,29.90,SSE,150,0.0,0.0,71,0.00,,SKC,0.00,VWS V14.01,2013-08-02 08:40:00,
2013-08-02 03:45:00,77.6,67.9,29.90,SSE,150,0.0,1.0,72,0.00,,SKC,0.00,VWS V14.01,2013-08-02 08:45:00,
2013-08-02 03:50:00,77.5,68.2,29.90,SSE,150,0.0,0.0,73,0.00,,SKC,0.00,VWS V14.01,2013-08-02 08:50:00,
2013-08-02 03:55:00,77.4,68.1,29.90,SSE,150,0.0,0.0,73,0.00,,SKC,0.00,VWS V14.01,2013-08-02 08:55:00,
2013-08-02 04:00:00,77.4,68.5,29.90,SSE,150,0.0,0.0,74,0.00,,SKC,0.00,VWS V14.01,2013-08-02 09:00:00,
2013-08-02 04:05:00,77.3,68.4,29.90,SSE,150,0.0,1.0,74,0.00,,SKC,0.00,VWS V14.01,2013-08-02 09:05:00,
2013-08-02 04:10:00,77.2,68.7,29.90,SSE,150,0.0,2.0,75,0.00,,SKC,0.00,VWS V14.01,2013-08-02 09:10:00,
2013-08-02 04:15:00,77.0,68.5,29.90,SSE,150,0.0,2.0,75,0.00,,SKC,0.00,VWS V14.01,2013-08-02 09:15:00,
2013-08-02 04:20:00,76.9,68.8,29.90,SSE,150,0.0,0.0,76,0.00,,SKC,0.00,VWS V14.01,2013-08-02 09:20:00,
2013-08-02 04:25:00,76.9,69.2,29.90,SSE,150,0.0,0.0,77,0.00,,SKC,0.00,VWS V14.01,2013-08-02 09:25:00,
2013-08-02 04:30:00,76.8,69.1,29.90,SSE,150,0.0,0.0,77,0.00,,SKC,0.00,VWS V14.01,2013-08-02 09:30:00,
2013-08-02 04:35:00,76.7,68.9,29.90,SSE,150,0.0,0.0,77,0.00,,SKC,0.00,VWS V14.01,2013-08-02 09:35:00,
2013-08-02 04:40:00,76.7,69.3,29.90,SSE,150,0.0,0.0,78,0.00,,SKC,0.00,VWS V14.01,2013-08-02 09:40:00,
2013-08-02 04:45:00,76.5,69.1,29.90,SSE,150,0.0,0.0,78,0.00,,SKC,0.00,VWS V14.01,2013-08-02 09:45:00,
2013-08-02 04:50:00,76.4,69.4,29.90,SSE,150,0.0,0.0,79,0.00,,SKC,0.00,VWS V14.01,2013-08-02 09:50:00,
2013-08-02 04:55:00,76.3,69.3,29.90,SSE,150,0.0,0.0,79,0.00,,SKC,0.00,VWS V14.01,2013-08-02 09:55:00,
2013-08-02 05:00:00,76.2,69.6,29.90,SSE,150,0.0,0.0,80,0.00,,SKC,0.00,VWS V14.01,2013-08-02 10:00:00,
2013-08-02 05:05:00,76.1,69.5,29.90,SSE,150,0.0,0.0,80,0.00,,SKC,0.00,VWS V14.01,2013-08-02 10:05:00,
2013-08-02 05:10:00,76.0,69.8,29.90,SSE,150,0.0,0.0,81,0.00,,SKC,0.00,VWS V14.01,2013-08-02 10:10:00,
2013-08-02 05:15:00,75.9,69.7,29.90,SSE,150,0.0,1.0,81,0.00,,SKC,0.00,VWS V14.01,2013-08-02 10:15:00,
2013-08-02 05:20:00,75.8,69.9,29.90,SSE,150,0.0,0.0,82,0.00,,SKC,0.00,VWS V14.01,2013-08-02 10:20:00,
2013-08-02 05:25:00,75.7,69.8,29.90,SSE,150,0.0,0.0,82,0.00,,SKC,0.00,VWS V14.01,2013-08-02 10:25:00,
2013-08-02 05:30:00,75.7,70.2,29.90,SSE,150,0.0,0.0,83,0.00,,SKC,0.00,VWS V14.01,2013-08-02 10:30:00,
2013-08-02 05:35:00,75.5,70.0,29.90,SSE,150,0.0,0.0,83,0.00,,SKC,0.00,VWS V14.01,2013-08-02 10:35:00,
2013-08-02 05:40:00,75.5,70.3,29.90,SSE,150,0.0,0.0,84,0.00,,SKC,0.00,VWS V14.01,2013-08-02 10:40:00,
2013-08-02 05:47:00,75.3,70.1,29.90,SSE,150,0.0,0.0,84,0.00,,SKC,0.00,VWS V14.01,2013-08-02 10:47:00,
2013-08-02 05:50:00,75.3,70.1,29.90,SSE,150,0.0,0.0,84,0.00,,SKC,0.00,VWS V14.01,2013-08-02 10:50:00,
2013-08-02 05:52:00,75.1,69.9,29.90,SSE,150,0.0,0.0,84,0.00,,SKC,0.00,VWS V14.01,2013-08-02 10:52:00,
2013-08-02 05:57:00,74.9,69.7,29.90,SSE,150,0.0,0.0,84,0.00,,SKC,0.00,VWS V14.01,2013-08-02 10:57:00,
2013-08-02 06:00:00,74.9,69.7,29.90,SSE,150,0.0,0.0,84,0.00,,SKC,0.00,VWS V14.01,2013-08-02 11:00:00,
2013-08-02 06:02:00,74.8,70.0,29.90,SSE,150,0.0,0.0,85,0.00,,SKC,0.00,VWS V14.01,2013-08-02 11:02:00,
2013-08-02 06:07:00,74.6,69.8,29.90,SSE,150,0.0,0.0,85,0.00,,SKC,0.00,VWS V14.01,2013-08-02 11:07:00,
2013-08-02 06:10:00,74.7,69.9,29.90,SSE,150,0.0,0.0,85,0.00,,SKC,0.00,VWS V14.01,2013-08-02 11:10:00,
2013-08-02 06:12:00,74.5,69.7,29.90,SSE,150,0.0,0.0,85,0.00,,SKC,0.00,VWS V14.01,2013-08-02 11:12:00,
2013-08-02 06:17:00,74.4,69.9,29.90,SSE,150,0.0,0.0,86,0.00,,SKC,0.00,VWS V14.01,2013-08-02 11:17:00,
2013-08-02 06:20:00,74.4,69.9,29.90,SSE,150,0.0,0.0,86,0.00,,SKC,0.00,VWS V14.01,2013-08-02 11:20:00,
2013-08-02 06:22:00,74.3,70.2,29.90,SSE,150,0.0,0.0,87,0.00,,SKC,0.00,VWS V14.01,2013-08-02 11:22:00,
2013-08-02 06:27:00,74.2,70.1,29.90,SSE,150,0.0,0.0,87,0.00,,SKC,0.00,VWS V14.01,2013-08-02 11:27:00,
2013-08-02 06:30:00,74.2,70.4,29.90,SSE,150,0.0,0.0,88,0.00,,SKC,0.00,VWS V14.01,2013-08-02 11:30:00,
2013-08-02 06:32:00,74.0,70.2,29.90,SSE,150,0.0,0.0,88,0.00,,SKC,0.00,VWS V14.01,2013-08-02 11:32:00,
2013-08-02 06:37:00,74.0,70.2,29.91,SSE,150,0.0,0.0,88,0.00,,SKC,0.00,VWS V14.01,2013-08-02 11:37:00,
2013-08-02 06:40:00,74.0,70.2,29.90,SSE,150,0.0,0.0,88,0.00,,SKC,0.00,VWS V14.01,2013-08-02 11:40:00,
2013-08-02 06:42:00,73.9,70.1,29.91,SSE,150,0.0,0.0,88,0.00,,SKC,0.00,VWS V14.01,2013-08-02 11:42:00,
2013-08-02 06:47:00,73.8,70.4,29.91,SSE,150,0.0,0.0,89,0.00,,SKC,0.00,VWS V14.01,2013-08-02 11:47:00,
2013-08-02 06:50:00,73.8,70.0,29.91,SSE,150,0.0,0.0,88,0.00,,SKC,0.00,VWS V14.01,2013-08-02 11:50:00,
2013-08-02 06:52:00,73.7,70.3,29.91,SSE,150,0.0,0.0,89,0.00,,SKC,0.00,VWS V14.01,2013-08-02 11:52:00,
2013-08-02 06:57:00,73.7,70.3,29.91,SSE,150,0.0,0.0,89,0.00,,SKC,0.00,VWS V14.01,2013-08-02 11:57:00,
2013-08-02 07:00:00,73.7,70.3,29.91,SSE,150,0.0,0.0,89,0.00,,SKC,0.00,VWS V14.01,2013-08-02 12:00:00,
2013-08-02 07:02:00,73.6,70.2,29.91,SSE,150,0.0,0.0,89,0.00,,SKC,0.00,VWS V14.01,2013-08-02 12:02:00,
2013-08-02 07:07:00,73.5,70.1,29.91,SSE,150,0.0,0.0,89,0.00,,SKC,0.00,VWS V14.01,2013-08-02 12:07:00,
2013-08-02 07:10:00,73.5,70.1,29.91,SSE,150,0.0,0.0,89,0.00,,SKC,0.00,VWS V14.01,2013-08-02 12:10:00,
2013-08-02 07:12:00,73.4,70.0,29.91,SSE,150,0.0,0.0,89,0.00,,SKC,0.00,VWS V14.01,2013-08-02 12:12:00,
2013-08-02 07:17:00,73.3,70.2,29.91,SSE,150,0.0,0.0,90,0.00,,SKC,0.00,VWS V14.01,2013-08-02 12:17:00,
2013-08-02 07:20:00,73.3,70.2,29.92,SSE,150,0.0,0.0,90,0.00,,SKC,0.00,VWS V14.01,2013-08-02 12:20:00,
2013-08-02 07:22:00,73.4,70.6,29.92,SSE,150,0.0,0.0,91,0.00,,SKC,0.00,VWS V14.01,2013-08-02 12:22:00,
2013-08-02 07:27:00,73.5,70.7,29.91,SSE,150,0.0,1.0,91,0.00,,SKC,0.00,VWS V14.01,2013-08-02 12:27:00,
2013-08-02 07:30:00,73.5,70.7,29.91,SSE,150,0.0,0.0,91,0.00,,SKC,0.00,VWS V14.01,2013-08-02 12:30:00,
2013-08-02 07:32:00,73.8,71.3,29.92,SSE,150,0.0,1.0,92,0.00,,SKC,0.00,VWS V14.01,2013-08-02 12:32:00,
2013-08-02 07:37:00,74.0,71.5,29.92,SSE,150,0.0,0.0,92,0.00,,SKC,0.00,VWS V14.01,2013-08-02 12:37:00,
2013-08-02 07:40:00,74.0,71.5,29.92,SSE,150,0.0,1.0,92,0.00,,SKC,0.00,VWS V14.01,2013-08-02 12:40:00,
2013-08-02 07:42:00,74.3,71.5,29.92,SSE,150,0.0,0.0,91,0.00,,SKC,0.00,VWS V14.01,2013-08-02 12:42:00,
2013-08-02 07:47:00,74.4,71.6,29.92,SSE,150,0.0,0.0,91,0.00,,SKC,0.00,VWS V14.01,2013-08-02 12:47:00,
2013-08-02 07:50:00,74.4,71.6,29.92,SSE,150,0.0,0.0,91,0.00,,SKC,0.00,VWS V14.01,2013-08-02 12:50:00,
2013-08-02 07:52:00,74.6,71.8,29.92,SSE,150,0.0,0.0,91,0.00,,SKC,0.00,VWS V14.01,2013-08-02 12:52:00,
2013-08-02 07:57:00,74.8,72.0,29.93,SSE,150,0.0,0.0,91,0.00,,SKC,0.00,VWS V14.01,2013-08-02 12:57:00,
2013-08-02 08:00:00,74.7,71.9,29.92,SSE,150,0.0,0.0,91,0.00,,SKC,0.00,VWS V14.01,2013-08-02 13:00:00,
2013-08-02 08:02:00,75.0,71.9,29.93,SSE,150,0.0,0.0,90,0.00,,SKC,0.00,VWS V14.01,2013-08-02 13:02:00,
2013-08-02 08:07:00,75.2,72.1,29.93,SSE,150,0.0,0.0,90,0.00,,SKC,0.00,VWS V14.01,2013-08-02 13:07:00,
2013-08-02 08:10:00,75.1,72.0,29.93,SSE,150,0.0,0.0,90,0.00,,SKC,0.00,VWS V14.01,2013-08-02 13:10:00,
2013-08-02 08:12:00,75.5,72.4,29.93,SSE,150,0.0,0.0,90,0.00,,SKC,0.00,VWS V14.01,2013-08-02 13:12:00,
2013-08-02 08:17:00,75.8,72.7,29.93,SSE,150,0.0,0.0,90,0.00,,SKC,0.00,VWS V14.01,2013-08-02 13:17:00,
2013-08-02 08:20:00,75.7,72.6,29.93,SSE,150,0.0,0.0,90,0.00,,SKC,0.00,VWS V14.01,2013-08-02 13:20:00,
2013-08-02 08:22:00,76.1,72.6,29.93,SSE,150,0.0,0.0,89,0.00,,SKC,0.00,VWS V14.01,2013-08-02 13:22:00,
2013-08-02 08:27:00,76.4,72.9,29.93,SSE,150,0.0,1.0,89,0.00,,SKC,0.00,VWS V14.01,2013-08-02 13:27:00,
2013-08-02 08:30:00,76.3,72.8,29.94,SSE,150,0.0,2.0,89,0.00,,SKC,0.00,VWS V14.01,2013-08-02 13:30:00,
2013-08-02 08:32:00,76.7,73.2,29.94,SSE,150,0.0,1.0,89,0.00,,SKC,0.00,VWS V14.01,2013-08-02 13:32:00,
2013-08-02 08:37:00,77.0,73.5,29.94,SSE,150,0.0,4.0,89,0.00,,SKC,0.00,VWS V14.01,2013-08-02 13:37:00,
2013-08-02 08:40:00,76.9,73.4,29.94,SSE,150,3.0,4.0,89,0.00,,SKC,0.00,VWS V14.01,2013-08-02 13:40:00,
2013-08-02 08:42:00,77.2,73.7,29.94,SSE,150,1.0,4.0,89,0.00,,SKC,0.00,VWS V14.01,2013-08-02 13:42:00,
2013-08-02 08:47:00,77.4,73.6,29.94,SSE,150,0.0,5.0,88,0.00,,SKC,0.00,VWS V14.01,2013-08-02 13:47:00,
2013-08-02 08:50:00,77.3,73.5,29.94,SSE,150,0.0,4.0,88,0.00,,SKC,0.00,VWS V14.01,2013-08-02 13:50:00,
2013-08-02 08:52:00,77.7,73.9,29.94,SSE,150,0.0,5.0,88,0.00,,SKC,0.00,VWS V14.01,2013-08-02 13:52:00,
2013-08-02 08:57:00,78.0,73.8,29.94,SSE,150,0.0,3.0,87,0.00,,SKC,0.00,VWS V14.01,2013-08-02 13:57:00,
2013-08-02 09:00:00,77.9,74.1,29.94,SSE,150,3.0,5.0,88,0.00,,SKC,0.00,VWS V14.01,2013-08-02 14:00:00,
2013-08-02 09:02:00,78.4,73.9,29.94,SSE,150,2.0,6.0,86,0.00,,SKC,0.00,VWS V14.01,2013-08-02 14:02:00,
2013-08-02 09:07:00,78.8,74.3,29.94,SSE,151,0.0,7.0,86,0.00,,SKC,0.00,VWS V14.01,2013-08-02 14:07:00,
2013-08-02 09:10:00,78.6,74.1,29.94,SSE,150,2.0,6.0,86,0.00,,SKC,0.00,VWS V14.01,2013-08-02 14:10:00,
2013-08-02 09:12:00,79.1,74.2,29.94,SSE,153,0.0,7.0,85,0.00,,SKC,0.00,VWS V14.01,2013-08-02 14:12:00,
2013-08-02 09:17:00,79.3,74.1,29.94,SSE,154,4.0,7.0,84,0.00,,SKC,0.00,VWS V14.01,2013-08-02 14:17:00,
2013-08-02 09:20:00,79.2,73.9,29.94,SSE,153,0.0,7.0,84,0.00,,SKC,0.00,VWS V14.01,2013-08-02 14:20:00,
2013-08-02 09:22:00,79.6,74.0,29.94,SSE,156,2.0,7.0,83,0.00,,SKC,0.00,VWS V14.01,2013-08-02 14:22:00,
2013-08-02 09:27:00,79.9,74.3,29.94,SSE,156,0.0,1.0,83,0.00,,SKC,0.00,VWS V14.01,2013-08-02 14:27:00,
2013-08-02 09:30:00,79.7,74.1,29.94,SSE,156,0.0,7.0,83,0.00,,SKC,0.00,VWS V14.01,2013-08-02 14:30:00,
2013-08-02 09:32:00,80.3,74.3,29.94,SSE,156,0.0,5.0,82,0.00,,SKC,0.00,VWS V14.01,2013-08-02 14:32:00,
2013-08-02 09:37:00,80.8,74.4,29.94,SSE,156,0.0,5.0,81,0.00,,SKC,0.00,VWS V14.01,2013-08-02 14:37:00,
2013-08-02 09:40:00,80.6,74.6,29.94,SSE,156,0.0,5.0,82,0.00,,SKC,0.00,VWS V14.01,2013-08-02 14:40:00,
2013-08-02 09:42:00,81.2,74.8,29.94,SSE,156,0.0,5.0,81,0.00,,SKC,0.00,VWS V14.01,2013-08-02 14:42:00,
2013-08-02 09:47:00,81.7,74.6,29.94,SSE,157,0.0,5.0,79,0.00,,SKC,0.00,VWS V14.01,2013-08-02 14:47:00,
2013-08-02 09:50:00,81.5,74.4,29.94,SSE,157,0.0,7.0,79,0.00,,SKC,0.00,VWS V14.01,2013-08-02 14:50:00,
2013-08-02 09:52:00,82.2,75.0,29.94,SSE,157,0.0,5.0,79,0.00,,SKC,0.00,VWS V14.01,2013-08-02 14:52:00,
2013-08-02 09:57:00,82.9,74.6,29.94,SSE,157,0.0,5.0,76,0.00,,SKC,0.00,VWS V14.01,2013-08-02 14:57:00,
2013-08-02 10:00:00,82.6,75.1,29.94,SSE,157,0.0,5.0,78,0.00,,SKC,0.00,VWS V14.01,2013-08-02 15:00:00,
2013-08-02 10:02:00,83.2,74.5,29.94,SSE,157,0.0,5.0,75,0.00,,SKC,0.00,VWS V14.01,2013-08-02 15:02:00,
2013-08-02 10:07:00,83.6,74.4,29.95,SSE,159,3.0,8.0,74,0.00,,SKC,0.00,VWS V14.01,2013-08-02 15:07:00,
2013-08-02 10:10:00,83.6,74.4,29.95,SSE,157,5.0,5.0,74,0.00,,SKC,0.00,VWS V14.01,2013-08-02 15:10:00,
2013-08-02 10:12:00,83.9,73.9,29.95,SSE,161,1.0,8.0,72,0.00,,SKC,0.00,VWS V14.01,2013-08-02 15:12:00,
2013-08-02 10:17:00,84.3,73.9,29.94,SSE,164,5.0,9.0,71,0.00,,SKC,0.00,VWS V14.01,2013-08-02 15:17:00,
2013-08-02 10:20:00,84.2,74.2,29.94,SSE,162,6.0,8.0,72,0.00,,SKC,0.00,VWS V14.01,2013-08-02 15:20:00,
2013-08-02 10:22:00,84.5,73.7,29.94,SSE,165,0.0,9.0,70,0.00,,SKC,0.00,VWS V14.01,2013-08-02 15:22:00,
2013-08-02 10:27:00,84.8,73.5,29.95,SSE,168,1.0,7.0,69,0.00,,SKC,0.00,VWS V14.01,2013-08-02 15:27:00,
2013-08-02 10:30:00,84.7,73.8,29.95,SSE,168,2.0,9.0,70,0.00,,SKC,0.00,VWS V14.01,2013-08-02 15:30:00,
2013-08-02 10:32:00,85.0,73.7,29.95,South,170,0.0,7.0,69,0.00,,SKC,0.00,VWS V14.01,2013-08-02 15:32:00,
2013-08-02 10:37:00,85.2,73.9,29.94,South,170,0.0,0.0,69,0.00,,SKC,0.00,VWS V14.01,2013-08-02 15:37:00,
2013-08-02 10:40:00,85.1,73.8,29.94,South,170,0.0,7.0,69,0.00,,SKC,0.00,VWS V14.01,2013-08-02 15:40:00,
2013-08-02 10:42:00,85.5,73.3,29.94,South,170,0.0,6.0,67,0.00,,SKC,0.00,VWS V14.01,2013-08-02 15:42:00,
2013-08-02 10:47:00,85.6,73.4,29.94,South,171,0.0,6.0,67,0.00,,SKC,0.00,VWS V14.01,2013-08-02 15:47:00,
2013-08-02 10:50:00,85.6,73.4,29.94,South,171,0.0,6.0,67,0.00,,SKC,0.00,VWS V14.01,2013-08-02 15:50:00,
2013-08-02 10:53:00,85.7,73.0,29.94,South,171,1.0,6.0,66,0.00,,SKC,0.00,VWS V14.01,2013-08-02 15:53:00,
2013-08-02 10:57:00,86.0,73.3,29.94,South,171,0.0,3.0,66,0.00,,SKC,0.00,VWS V14.01,2013-08-02 15:57:00,
2013-08-02 11:00:00,85.9,72.8,29.94,South,171,0.0,6.0,65,0.00,,SKC,0.00,VWS V14.01,2013-08-02 16:00:00,
2013-08-02 11:02:00,86.1,73.0,29.95,South,171,0.0,7.0,65,0.00,,SKC,0.00,VWS V14.01,2013-08-02 16:02:00,
2013-08-02 11:07:00,86.4,73.2,29.94,South,173,4.0,8.0,65,0.00,,SKC,0.00,VWS V14.01,2013-08-02 16:07:00,
2013-08-02 11:10:00,86.2,73.1,29.94,South,171,2.0,7.0,65,0.00,,SKC,0.00,VWS V14.01,2013-08-02 16:10:00,
2013-08-02 11:12:00,86.8,72.7,29.94,South,177,0.0,9.0,63,0.00,,SKC,0.00,VWS V14.01,2013-08-02 16:12:00,
2013-08-02 11:17:00,87.3,73.2,29.94,South,176,1.0,8.0,63,0.00,,SKC,0.00,VWS V14.01,2013-08-02 16:17:00,
2013-08-02 11:20:00,87.1,73.0,29.94,South,175,1.0,9.0,63,0.00,,SKC,0.00,VWS V14.01,2013-08-02 16:20:00,
2013-08-02 11:22:00,87.6,73.5,29.94,South,177,0.0,8.0,63,0.00,,SKC,0.00,VWS V14.01,2013-08-02 16:22:00,
2013-08-02 11:27:00,87.9,72.3,29.94,South,177,0.0,2.0,60,0.00,,SKC,0.00,VWS V14.01,2013-08-02 16:27:00,
2013-08-02 11:30:00,87.8,73.2,29.94,South,177,0.0,8.0,62,0.00,,SKC,0.00,VWS V14.01,2013-08-02 16:30:00,
2013-08-02 11:32:00,88.2,72.6,29.94,South,177,0.0,7.0,60,0.00,,SKC,0.00,VWS V14.01,2013-08-02 16:32:00,
2013-08-02 11:37:00,88.4,72.3,29.94,South,177,0.0,4.0,59,0.00,,SKC,0.00,VWS V14.01,2013-08-02 16:37:00,
2013-08-02 11:40:00,88.3,72.7,29.94,South,177,2.0,7.0,60,0.00,,SKC,0.00,VWS V14.01,2013-08-02 16:40:00,
2013-08-02 11:42:00,88.8,72.1,29.94,South,177,0.0,7.0,58,0.00,,SKC,0.00,VWS V14.01,2013-08-02 16:42:00,
2013-08-02 11:47:00,89.2,71.5,29.94,South,178,0.0,8.0,56,0.00,,SKC,0.00,VWS V14.01,2013-08-02 16:47:00,
2013-08-02 11:50:00,89.0,71.8,29.94,South,177,1.0,7.0,57,0.00,,SKC,0.00,VWS V14.01,2013-08-02 16:50:00,
2013-08-02 11:52:00,89.4,71.7,29.94,South,179,0.0,8.0,56,0.00,,SKC,0.00,VWS V14.01,2013-08-02 16:52:00,
2013-08-02 11:57:00,89.6,72.4,29.94,South,180,0.0,1.0,57,0.00,,SKC,0.00,VWS V14.01,2013-08-02 16:57:00,
2013-08-02 12:00:00,89.6,72.4,29.94,South,180,0.0,8.0,57,0.00,,SKC,0.00,VWS V14.01,2013-08-02 17:00:00,
2013-08-02 12:02:00,89.9,71.0,29.93,South,179,4.0,6.0,54,0.00,,SKC,0.00,VWS V14.01,2013-08-02 17:02:00,
2013-08-02 12:07:00,90.3,72.5,29.93,South,179,0.0,3.0,56,0.00,,SKC,0.00,VWS V14.01,2013-08-02 17:07:00,
2013-08-02 12:10:00,90.2,72.4,29.93,South,179,0.0,6.0,56,0.00,,SKC,0.00,VWS V14.01,2013-08-02 17:10:00,
2013-08-02 12:12:00,90.7,72.3,29.93,South,182,1.0,7.0,55,0.00,,SKC,0.00,VWS V14.01,2013-08-02 17:12:00,
2013-08-02 12:17:00,91.1,72.2,29.93,South,179,0.0,0.0,54,0.00,,SKC,0.00,VWS V14.01,2013-08-02 17:17:00,
2013-08-02 12:20:00,90.9,72.0,29.93,South,179,0.0,10.0,54,0.00,,SKC,0.00,VWS V14.01,2013-08-02 17:20:00,
2013-08-02 12:22:00,91.4,71.9,29.93,South,179,0.0,4.0,53,0.00,,SKC,0.00,VWS V14.01,2013-08-02 17:22:00,
2013-08-02 12:27:00,91.6,71.5,29.93,South,185,1.0,8.0,52,0.00,,SKC,0.00,VWS V14.01,2013-08-02 17:27:00,
2013-08-02 12:30:00,91.5,72.0,29.93,South,184,3.0,5.0,53,0.00,,SKC,0.00,VWS V14.01,2013-08-02 17:30:00,
2013-08-02 12:32:00,91.7,71.6,29.92,South,186,0.0,8.0,52,0.00,,SKC,0.00,VWS V14.01,2013-08-02 17:32:00,
2013-08-02 12:37:00,92.0,71.3,29.92,South,186,0.0,1.0,51,0.00,,SKC,0.00,VWS V14.01,2013-08-02 17:37:00,
2013-08-02 12:40:00,91.9,71.8,29.92,South,186,0.0,8.0,52,0.00,,SKC,0.00,VWS V14.01,2013-08-02 17:40:00,
2013-08-02 12:42:00,92.4,71.7,29.92,South,183,6.0,9.0,51,0.00,,SKC,0.00,VWS V14.01,2013-08-02 17:42:00,
2013-08-02 12:47:00,92.6,71.3,29.92,South,184,2.0,7.0,50,0.00,,SKC,0.00,VWS V14.01,2013-08-02 17:47:00,
2013-08-02 12:50:00,92.5,71.8,29.92,South,183,0.0,9.0,51,0.00,,SKC,0.00,VWS V14.01,2013-08-02 17:50:00,
2013-08-02 12:52:00,92.9,70.9,29.92,South,183,0.0,7.0,49,0.00,,SKC,0.00,VWS V14.01,2013-08-02 17:52:00,
2013-08-02 12:57:00,93.5,70.9,29.91,South,183,0.0,0.0,48,0.00,,SKC,0.00,VWS V14.01,2013-08-02 17:57:00,
2013-08-02 13:00:00,93.2,71.8,29.92,South,183,0.0,7.0,50,0.00,,SKC,0.00,VWS V14.01,2013-08-02 18:00:00,
2013-08-02 13:02:00,93.8,70.5,29.91,South,176,1.0,9.0,47,0.00,,SKC,0.00,VWS V14.01,2013-08-02 18:02:00,
2013-08-02 13:07:00,94.0,71.3,29.91,South,177,2.0,4.0,48,0.00,,SKC,0.00,VWS V14.01,2013-08-02 18:07:00,
2013-08-02 13:10:00,93.9,70.6,29.92,South,177,0.0,9.0,47,0.00,,SKC,0.00,VWS V14.01,2013-08-02 18:10:00,
2013-08-02 13:12:00,94.3,71.0,29.91,South,180,4.0,8.0,47,0.00,,SKC,0.00,VWS V14.01,2013-08-02 18:12:00,
2013-08-02 13:17:00,94.4,71.7,29.91,South,185,3.0,9.0,48,0.00,,SKC,0.00,VWS V14.01,2013-08-02 18:17:00,
2013-08-02 13:20:00,94.4,71.1,29.91,South,181,8.0,10.0,47,0.00,,SKC,0.00,VWS V14.01,2013-08-02 18:20:00,
2013-08-02 13:22:00,94.4,71.1,29.91,South,187,1.0,9.0,47,0.00,,SKC,0.00,VWS V14.01,2013-08-02 18:22:00,
2013-08-02 13:27:00,94.4,71.1,29.91,South,187,0.0,1.0,47,0.00,,SKC,0.00,VWS V14.01,2013-08-02 18:27:00,
2013-08-02 13:30:00,94.3,71.0,29.91,South,187,0.0,9.0,47,0.00,,SKC,0.00,VWS V14.01,2013-08-02 18:30:00,
2013-08-02 13:32:00,94.7,70.1,29.91,South,184,0.0,8.0,45,0.00,,SKC,0.00,VWS V14.01,2013-08-02 18:32:00,
2013-08-02 13:37:00,95.2,71.2,29.90,South,184,0.0,1.0,46,0.00,,SKC,0.00,VWS V14.01,2013-08-02 18:37:00,
2013-08-02 13:40:00,95.0,71.0,29.90,South,184,0.0,8.0,46,0.00,,SKC,0.00,VWS V14.01,2013-08-02 18:40:00,
2013-08-02 13:42:00,95.4,70.7,29.90,South,186,1.0,8.0,45,0.00,,SKC,0.00,VWS V14.01,2013-08-02 18:42:00,
2013-08-02 13:47:00,95.3,70.6,29.90,South,186,0.0,5.0,45,0.00,,SKC,0.00,VWS V14.01,2013-08-02 18:47:00,
2013-08-02 13:50:00,95.4,70.7,29.90,South,186,1.0,8.0,45,0.00,,SKC,0.00,VWS V14.01,2013-08-02 18:50:00,
2013-08-02 13:52:00,95.3,69.3,29.90,South,186,0.0,5.0,43,0.00,,SKC,0.00,VWS V14.01,2013-08-02 18:52:00,
2013-08-02 13:57:00,95.6,70.2,29.90,South,188,1.0,5.0,44,0.00,,SKC,0.00,VWS V14.01,2013-08-02 18:57:00,
2013-08-02 14:00:00,95.5,70.8,29.90,South,187,4.0,8.0,45,0.00,,SKC,0.00,VWS V14.01,2013-08-02 19:00:00,
2013-08-02 14:02:00,95.5,70.1,29.90,South,189,0.0,7.0,44,0.00,,SKC,0.00,VWS V14.01,2013-08-02 19:02:00,
2013-08-02 14:07:00,95.5,70.8,29.90,SSW,194,3.0,3.0,45,0.00,,SKC,0.00,VWS V14.01,2013-08-02 19:07:00,
2013-08-02 14:10:00,95.5,70.1,29.90,SSW,194,2.0,7.0,44,0.00,,SKC,0.00,VWS V14.01,2013-08-02 19:10:00,
2013-08-02 14:12:00,95.7,70.3,29.89,SSW,194,0.0,3.0,44,0.00,,SKC,0.00,VWS V14.01,2013-08-02 19:12:00,
2013-08-02 14:17:00,96.1,70.0,29.89,South,188,0.0,13.0,43,0.00,,SKC,0.00,VWS V14.01,2013-08-02 19:17:00,
2013-08-02 14:20:00,95.9,69.8,29.89,SE,136,7.0,8.0,43,0.00,,SKC,0.00,VWS V14.01,2013-08-02 19:20:00,
2013-08-02 14:22:00,96.5,67.5,29.89,SSE,148,0.0,13.0,39,0.00,,SKC,0.00,VWS V14.01,2013-08-02 19:22:00,
2013-08-02 14:27:00,96.7,67.7,29.89,SSE,157,0.0,5.0,39,0.00,,SKC,0.00,VWS V14.01,2013-08-02 19:27:00,
2013-08-02 14:30:00,96.6,66.8,29.89,SSE,156,2.0,13.0,38,0.00,,SKC,0.00,VWS V14.01,2013-08-02 19:30:00,
2013-08-02 14:32:00,97.0,68.7,29.89,SSE,155,0.0,5.0,40,0.00,,SKC,0.00,VWS V14.01,2013-08-02 19:32:00,
2013-08-02 14:37:00,97.2,68.9,29.88,SSE,158,1.0,1.0,40,0.00,,SKC,0.00,VWS V14.01,2013-08-02 19:37:00,
2013-08-02 14:40:00,97.2,68.9,29.88,SSE,159,0.0,8.0,40,0.00,,SKC,0.00,VWS V14.01,2013-08-02 19:40:00,
2013-08-02 14:42:00,97.6,69.2,29.88,SSE,159,0.0,4.0,40,0.00,,SKC,0.00,VWS V14.01,2013-08-02 19:42:00,
2013-08-02 14:47:00,97.8,69.4,29.88,SSE,157,0.0,0.0,40,0.00,,SKC,0.00,VWS V14.01,2013-08-02 19:47:00,
2013-08-02 14:50:00,97.7,69.3,29.88,SSE,157,0.0,4.0,40,0.00,,SKC,0.00,VWS V14.01,2013-08-02 19:50:00,
2013-08-02 14:52:00,98.0,69.6,29.87,SSE,155,0.0,3.0,40,0.00,,SKC,0.00,VWS V14.01,2013-08-02 19:52:00,
2013-08-02 14:57:00,98.2,69.8,29.87,SSE,159,1.0,6.0,40,0.00,,SKC,0.00,VWS V14.01,2013-08-02 19:57:00,
2013-08-02 15:00:00,98.1,69.7,29.87,SSE,159,0.0,8.0,40,0.00,,SKC,0.00,VWS V14.01,2013-08-02 20:00:00,
2013-08-02 15:02:00,98.2,69.0,29.87,SSE,159,0.0,9.0,39,0.00,,SKC,0.00,VWS V14.01,2013-08-02 20:02:00,
2013-08-02 15:07:00,98.3,69.8,29.87,SSE,157,0.0,3.0,40,0.00,,SKC,0.00,VWS V14.01,2013-08-02 20:07:00,
2013-08-02 15:10:00,98.2,69.8,29.87,SSE,159,0.0,9.0,40,0.00,,SKC,0.00,VWS V14.01,2013-08-02 20:10:00,
2013-08-02 15:12:00,98.6,70.8,29.87,SSE,157,0.0,3.0,41,0.00,,SKC,0.00,VWS V14.01,2013-08-02 20:12:00,
2013-08-02 15:17:00,98.8,69.6,29.87,SSE,158,2.0,5.0,39,0.00,,SKC,0.00,VWS V14.01,2013-08-02 20:17:00,
2013-08-02 15:20:00,98.8,69.6,29.87,SSE,158,0.0,5.0,39,0.00,,SKC,0.00,VWS V14.01,2013-08-02 20:20:00,
2013-08-02 15:22:00,98.9,68.9,29.86,SSW,206,3.0,10.0,38,0.00,,SKC,0.00,VWS V14.01,2013-08-02 20:22:00,
2013-08-02 15:27:00,98.8,68.8,29.86,SSW,211,0.0,7.0,38,0.00,,SKC,0.00,VWS V14.01,2013-08-02 20:27:00,
2013-08-02 15:30:00,98.8,69.6,29.86,SSW,212,3.0,10.0,39,0.00,,SKC,0.00,VWS V14.01,2013-08-02 20:30:00,
2013-08-02 15:32:00,98.7,68.7,29.86,SSW,211,1.0,7.0,38,0.00,,SKC,0.00,VWS V14.01,2013-08-02 20:32:00,
2013-08-02 15:37:00,99.0,69.0,29.85,SSW,205,4.0,6.0,38,0.00,,SKC,0.00,VWS V14.01,2013-08-02 20:37:00,
2013-08-02 15:40:00,98.9,68.9,29.86,SSW,205,1.0,7.0,38,0.00,,SKC,0.00,VWS V14.01,2013-08-02 20:40:00,
2013-08-02 15:42:00,99.2,69.2,29.85,SSW,205,0.0,6.0,38,0.00,,SKC,0.00,VWS V14.01,2013-08-02 20:42:00,
2013-08-02 15:47:00,99.4,68.5,29.85,South,191,3.0,3.0,37,0.00,,SKC,0.00,VWS V14.01,2013-08-02 20:47:00,
2013-08-02 15:50:00,99.3,68.5,29.85,SSW,192,0.0,7.0,37,0.00,,SKC,0.00,VWS V14.01,2013-08-02 20:50:00,
2013-08-02 15:52:00,99.6,68.7,29.85,South,189,0.0,7.0,37,0.00,,SKC,0.00,VWS V14.01,2013-08-02 20:52:00,
2013-08-02 15:57:00,100.0,69.1,29.85,South,188,0.0,5.0,37,0.00,,SKC,0.00,VWS V14.01,2013-08-02 20:57:00,
2013-08-02 16:00:00,99.8,68.9,29.84,South,188,0.0,7.0,37,0.00,,SKC,0.00,VWS V14.01,2013-08-02 21:00:00,
2013-08-02 16:02:00,100.0,67.5,29.84,South,188,0.0,6.0,35,0.00,,SKC,0.00,VWS V14.01,2013-08-02 21:02:00,
2013-08-02 16:07:00,100.1,69.2,29.84,South,171,2.0,5.0,37,0.00,,SKC,0.00,VWS V14.01,2013-08-02 21:07:00,
2013-08-02 16:10:00,100.0,69.1,29.84,South,188,0.0,6.0,37,0.00,,SKC,0.00,VWS V14.01,2013-08-02 21:10:00,
2013-08-02 16:12:00,100.5,67.9,29.84,South,173,0.0,7.0,35,0.00,,SKC,0.00,VWS V14.01,2013-08-02 21:12:00,
2013-08-02 16:17:00,100.6,68.0,29.84,South,169,1.0,4.0,35,0.00,,SKC,0.00,VWS V14.01,2013-08-02 21:17:00,
2013-08-02 16:20:00,100.6,68.0,29.84,South,172,0.0,7.0,35,0.00,,SKC,0.00,VWS V14.01,2013-08-02 21:20:00,
2013-08-02 16:22:00,100.7,68.1,29.84,SSE,154,6.0,7.0,35,0.00,,SKC,0.00,VWS V14.01,2013-08-02 21:22:00,
2013-08-02 16:27:00,100.7,68.1,29.83,SSE,155,0.0,3.0,35,0.00,,SKC,0.00,VWS V14.01,2013-08-02 21:27:00,
2013-08-02 16:30:00,100.6,68.0,29.84,SSE,155,0.0,9.0,35,0.00,,SKC,0.00,VWS V14.01,2013-08-02 21:30:00,
2013-08-02 16:32:00,100.8,68.2,29.84,SSE,155,1.0,9.0,35,0.00,,SKC,0.00,VWS V14.01,2013-08-02 21:32:00,
2013-08-02 16:37:00,100.8,68.2,29.83,SSE,156,0.0,5.0,35,0.00,,SKC,0.00,VWS V14.01,2013-08-02 21:37:00,
2013-08-02 16:40:00,100.8,68.2,29.83,SSE,156,0.0,9.0,35,0.00,,SKC,0.00,VWS V14.01,2013-08-02 21:40:00,
2013-08-02 16:42:00,100.9,68.2,29.83,SSE,156,1.0,6.0,35,0.00,,SKC,0.00,VWS V14.01,2013-08-02 21:42:00,
2013-08-02 16:47:00,101.2,68.5,29.83,SE,146,4.0,7.0,35,0.00,,SKC,0.00,VWS V14.01,2013-08-02 21:47:00,
2013-08-02 16:50:00,101.2,67.7,29.83,SSE,155,0.0,6.0,34,0.00,,SKC,0.00,VWS V14.01,2013-08-02 21:50:00,
2013-08-02 16:52:00,101.0,67.5,29.83,SE,144,5.0,7.0,34,0.00,,SKC,0.00,VWS V14.01,2013-08-02 21:52:00,
2013-08-02 16:57:00,100.7,66.4,29.83,SSE,149,0.0,3.0,33,0.00,,SKC,0.00,VWS V14.01,2013-08-02 21:57:00,
2013-08-02 17:00:00,100.8,67.3,29.83,SSE,150,0.0,10.0,34,0.00,,SKC,0.00,VWS V14.01,2013-08-02 22:00:00,
2013-08-02 17:02:00,100.6,67.1,29.83,SSE,153,0.0,8.0,34,0.00,,SKC,0.00,VWS V14.01,2013-08-02 22:02:00,
2013-08-02 17:07:00,100.8,67.3,29.83,SSE,153,0.0,1.0,34,0.00,,SKC,0.00,VWS V14.01,2013-08-02 22:07:00,
2013-08-02 17:10:00,100.7,66.4,29.83,SSE,153,0.0,8.0,33,0.00,,SKC,0.00,VWS V14.01,2013-08-02 22:10:00,
2013-08-02 17:12:00,101.0,68.3,29.83,SSE,153,0.0,1.0,35,0.00,,SKC,0.00,VWS V14.01,2013-08-02 22:12:00,
2013-08-02 17:17:00,101.4,67.8,29.82,SSE,161,2.0,6.0,34,0.00,,SKC,0.00,VWS V14.01,2013-08-02 22:17:00,
2013-08-02 17:20:00,101.3,66.9,29.83,SSE,153,2.0,2.0,33,0.00,,SKC,0.00,VWS V14.01,2013-08-02 22:20:00,
2013-08-02 17:22:00,101.2,66.8,29.83,SSE,153,2.0,8.0,33,0.00,,SKC,0.00,VWS V14.01,2013-08-02 22:22:00,
2013-08-02 17:27:00,101.2,66.8,29.83,SSE,153,0.0,6.0,33,0.00,,SKC,0.00,VWS V14.01,2013-08-02 22:27:00,
2013-08-02 17:30:00,101.2,66.8,29.83,SSE,153,0.0,8.0,33,0.00,,SKC,0.00,VWS V14.01,2013-08-02 22:30:00,
2013-08-02 17:32:00,101.2,67.7,29.83,SSE,153,2.0,6.0,34,0.00,,SKC,0.00,VWS V14.01,2013-08-02 22:32:00,
2013-08-02 17:37:00,101.2,67.7,29.82,SSE,153,0.0,3.0,34,0.00,,SKC,0.00,VWS V14.01,2013-08-02 22:37:00,
2013-08-02 17:40:00,101.2,67.7,29.82,SSE,153,1.0,6.0,34,0.00,,SKC,0.00,VWS V14.01,2013-08-02 22:40:00,
2013-08-02 17:42:00,101.1,65.8,29.83,SSE,158,1.0,7.0,32,0.00,,SKC,0.00,VWS V14.01,2013-08-02 22:42:00,
2013-08-02 17:47:00,100.8,65.6,29.83,SSE,163,0.0,5.0,32,0.00,,SKC,0.00,VWS V14.01,2013-08-02 22:47:00,
2013-08-02 17:50:00,100.9,65.7,29.83,SSE,160,1.0,7.0,32,0.00,,SKC,0.00,VWS V14.01,2013-08-02 22:50:00,
2013-08-02 17:52:00,100.5,66.2,29.83,SSE,162,0.0,5.0,33,0.00,,SKC,0.00,VWS V14.01,2013-08-02 22:52:00,
2013-08-02 17:57:00,100.3,66.9,29.82,SSE,163,1.0,8.0,34,0.00,,SKC,0.00,VWS V14.01,2013-08-02 22:57:00,
2013-08-02 18:00:00,100.3,66.9,29.83,SSE,162,0.0,5.0,34,0.00,,SKC,0.00,VWS V14.01,2013-08-02 23:00:00,
2013-08-02 18:02:00,100.0,68.3,29.82,SSE,155,2.0,8.0,36,0.00,,SKC,0.00,VWS V14.01,2013-08-02 23:02:00,
2013-08-02 18:07:00,99.7,67.2,29.82,SSE,155,3.0,9.0,35,0.00,,SKC,0.00,VWS V14.01,2013-08-02 23:07:00,
2013-08-02 18:10:00,99.8,67.3,29.82,SSE,154,0.0,8.0,35,0.00,,SKC,0.00,VWS V14.01,2013-08-02 23:10:00,
2013-08-02 18:12:00,99.4,66.9,29.82,SSE,155,0.0,9.0,35,0.00,,SKC,0.00,VWS V14.01,2013-08-02 23:12:00,
2013-08-02 18:17:00,99.1,66.7,29.82,SSE,153,3.0,5.0,35,0.00,,SKC,0.00,VWS V14.01,2013-08-02 23:17:00,
2013-08-02 18:20:00,99.2,66.8,29.82,SSE,156,1.0,9.0,35,0.00,,SKC,0.00,VWS V14.01,2013-08-02 23:20:00,
2013-08-02 18:22:00,98.9,66.5,29.82,SSE,153,0.0,5.0,35,0.00,,SKC,0.00,VWS V14.01,2013-08-02 23:22:00,
2013-08-02 18:27:00,98.6,67.1,29.82,SSE,154,0.0,1.0,36,0.00,,SKC,0.00,VWS V14.01,2013-08-02 23:27:00,
2013-08-02 18:30:00,98.7,66.3,29.82,SSE,154,0.0,8.0,35,0.00,,SKC,0.00,VWS V14.01,2013-08-02 23:30:00,
2013-08-02 18:32:00,98.5,66.1,29.83,SE,144,0.0,8.0,35,0.00,,SKC,0.00,VWS V14.01,2013-08-02 23:32:00,
2013-08-02 18:37:00,98.2,65.9,29.83,SE,144,0.0,2.0,35,0.00,,SKC,0.00,VWS V14.01,2013-08-02 23:37:00,
2013-08-02 18:40:00,98.3,66.0,29.83,SE,144,0.0,8.0,35,0.00,,SKC,0.00,VWS V14.01,2013-08-02 23:40:00,
2013-08-02 18:42:00,98.0,66.5,29.83,SE,141,0.0,6.0,36,0.00,,SKC,0.00,VWS V14.01,2013-08-02 23:42:00,
2013-08-02 18:47:00,97.8,65.5,29.83,SE,141,1.0,4.0,35,0.00,,SKC,0.00,VWS V14.01,2013-08-02 23:47:00,
2013-08-02 18:50:00,97.9,65.6,29.83,SE,141,1.0,6.0,35,0.00,,SKC,0.00,VWS V14.01,2013-08-02 23:50:00,
2013-08-02 18:52:00,97.7,65.4,29.83,SE,141,0.0,4.0,35,0.00,,SKC,0.00,VWS V14.01,2013-08-02 23:52:00,
2013-08-02 18:57:00,97.5,66.1,29.83,SE,142,5.0,5.0,36,0.00,,SKC,0.00,VWS V14.01,2013-08-02 23:57:00,
2013-08-02 19:00:00,97.6,66.2,29.83,SE,141,0.0,4.0,36,0.00,,SKC,0.00,VWS V14.01,2013-08-03 00:00:00,
2013-08-02 19:02:00,97.3,65.9,29.83,SE,144,2.0,9.0,36,0.00,,SKC,0.00,VWS V14.01,2013-08-03 00:02:00,
2013-08-02 19:07:00,97.1,66.5,29.83,SSE,148,0.0,4.0,37,0.00,,SKC,0.00,VWS V14.01,2013-08-03 00:07:00,
2013-08-02 19:10:00,97.2,66.6,29.83,SSE,148,0.0,9.0,37,0.00,,SKC,0.00,VWS V14.01,2013-08-03 00:10:00,
2013-08-02 19:12:00,96.9,66.3,29.83,SSE,150,0.0,8.0,37,0.00,,SKC,0.00,VWS V14.01,2013-08-03 00:12:00,
2013-08-02 19:17:00,96.7,66.9,29.84,SSE,150,0.0,2.0,38,0.00,,SKC,0.00,VWS V14.01,2013-08-03 00:17:00,
2013-08-02 19:20:00,96.8,67.0,29.83,SSE,150,0.0,8.0,38,0.00,,SKC,0.00,VWS V14.01,2013-08-03 00:20:00,
2013-08-02 19:22:00,96.4,66.7,29.84,SSE,151,1.0,7.0,38,0.00,,SKC,0.00,VWS V14.01,2013-08-03 00:22:00,
2013-08-02 19:27:00,96.2,66.5,29.84,SSE,152,3.0,4.0,38,0.00,,SKC,0.00,VWS V14.01,2013-08-03 00:27:00,
2013-08-02 19:30:00,96.3,66.6,29.84,SSE,152,1.0,7.0,38,0.00,,SKC,0.00,VWS V14.01,2013-08-03 00:30:00,
2013-08-02 19:32:00,96.0,66.3,29.84,SSE,153,4.0,7.0,38,0.00,,SKC,0.00,VWS V14.01,2013-08-03 00:32:00,
2013-08-02 19:37:00,95.8,66.1,29.84,SSE,155,2.0,8.0,38,0.00,,SKC,0.00,VWS V14.01,2013-08-03 00:37:00,
2013-08-02 19:40:00,95.8,66.9,29.84,SSE,153,5.0,7.0,39,0.00,,SKC,0.00,VWS V14.01,2013-08-03 00:40:00,
2013-08-02 19:42:00,95.5,66.6,29.84,SSE,155,0.0,8.0,39,0.00,,SKC,0.00,VWS V14.01,2013-08-03 00:42:00,
2013-08-02 19:47:00,95.4,66.5,29.84,SSE,156,0.0,7.0,39,0.00,,SKC,0.00,VWS V14.01,2013-08-03 00:47:00,
2013-08-02 19:50:00,95.4,66.5,29.84,SSE,155,0.0,8.0,39,0.00,,SKC,0.00,VWS V14.01,2013-08-03 00:50:00,
2013-08-02 19:52:00,95.1,67.0,29.84,SSE,156,1.0,7.0,40,0.00,,SKC,0.00,VWS V14.01,2013-08-03 00:52:00,
2013-08-02 19:57:00,94.9,66.8,29.84,SSE,156,2.0,8.0,40,0.00,,SKC,0.00,VWS V14.01,2013-08-03 00:57:00,
2013-08-02 20:00:00,95.0,66.9,29.84,SSE,156,0.0,7.0,40,0.00,,SKC,0.00,VWS V14.01,2013-08-03 01:00:00,
2013-08-02 20:02:00,94.6,66.6,29.84,SSE,156,1.0,8.0,40,0.00,,SKC,0.00,VWS V14.01,2013-08-03 01:02:00,
2013-08-02 20:07:00,94.4,67.1,29.84,SSE,156,3.0,3.0,41,0.00,,SKC,0.00,VWS V14.01,2013-08-03 01:07:00,
2013-08-02 20:10:00,94.4,67.1,29.84,SSE,156,0.0,8.0,41,0.00,,SKC,0.00,VWS V14.01,2013-08-03 01:10:00,
2013-08-02 20:12:00,94.1,67.5,29.84,SSE,156,0.0,5.0,42,0.00,,SKC,0.00,VWS V14.01,2013-08-03 01:12:00,
2013-08-02 20:17:00,93.8,67.2,29.84,SSE,156,0.0,1.0,42,0.00,,SKC,0.00,VWS V14.01,2013-08-03 01:17:00,
2013-08-02 20:20:00,93.9,67.3,29.84,SSE,156,0.0,5.0,42,0.00,,SKC,0.00,VWS V14.01,2013-08-03 01:20:00,
2013-08-02 20:22:00,93.5,67.0,29.84,SSE,157,0.0,4.0,42,0.00,,SKC,0.00,VWS V14.01,2013-08-03 01:22:00,
2013-08-02 20:27:00,93.3,66.8,29.84,SSE,165,0.0,2.0,42,0.00,,SKC,0.00,VWS V14.01,2013-08-03 01:27:00,
2013-08-02 20:30:00,93.4,66.9,29.84,SSE,165,0.0,4.0,42,0.00,,SKC,0.00,VWS V14.01,2013-08-03 01:30:00,
2013-08-02 20:32:00,93.0,67.2,29.85,SSE,165,0.0,2.0,43,0.00,,SKC,0.00,VWS V14.01,2013-08-03 01:32:00,
2013-08-02 20:37:00,92.7,66.9,29.85,SSE,165,0.0,0.0,43,0.00,,SKC,0.00,VWS V14.01,2013-08-03 01:37:00,
2013-08-02 20:40:00,92.8,67.0,29.85,SSE,165,0.0,2.0,43,0.00,,SKC,0.00,VWS V14.01,2013-08-03 01:40:00,
2013-08-02 20:42:00,92.5,67.4,29.85,SSE,165,0.0,2.0,44,0.00,,SKC,0.00,VWS V14.01,2013-08-03 01:42:00,
2013-08-02 20:47:00,92.2,67.2,29.85,SSE,165,0.0,0.0,44,0.00,,SKC,0.00,VWS V14.01,2013-08-03 01:47:00,
2013-08-02 20:50:00,92.3,67.2,29.85,SSE,165,0.0,2.0,44,0.00,,SKC,0.00,VWS V14.01,2013-08-03 01:50:00,
2013-08-02 20:52:00,91.9,67.5,29.85,SSE,165,0.0,12.0,45,0.00,,SKC,0.00,VWS V14.01,2013-08-03 01:52:00,
2013-08-02 20:57:00,91.4,68.3,29.86,SSE,165,0.0,3.0,47,0.00,,SKC,0.00,VWS V14.01,2013-08-03 01:57:00,
2013-08-02 21:00:00,91.5,68.4,29.85,SSE,165,0.0,12.0,47,0.00,,SKC,0.00,VWS V14.01,2013-08-03 02:00:00,
2013-08-02 21:02:00,90.9,69.1,29.86,SSE,161,3.0,6.0,49,0.00,,SKC,0.00,VWS V14.01,2013-08-03 02:02:00,
2013-08-02 21:07:00,90.5,69.3,29.86,SSE,161,0.0,1.0,50,0.00,,SKC,0.00,VWS V14.01,2013-08-03 02:07:00,
2013-08-02 21:10:00,90.6,68.8,29.86,SSE,161,0.0,7.0,49,0.00,,SKC,0.00,VWS V14.01,2013-08-03 02:10:00,
2013-08-02 21:12:00,90.1,69.0,29.86,SSE,163,0.0,10.0,50,0.00,,SKC,0.00,VWS V14.01,2013-08-03 02:12:00,
2013-08-02 21:17:00,89.8,69.3,29.87,SSE,161,0.0,7.0,51,0.00,,SKC,0.00,VWS V14.01,2013-08-03 02:17:00,
2013-08-02 21:20:00,89.9,68.8,29.86,SSE,161,5.0,11.0,50,0.00,,SKC,0.00,VWS V14.01,2013-08-03 02:20:00,
2013-08-02 21:22:00,89.5,69.0,29.87,SSE,161,0.0,8.0,51,0.00,,SKC,0.00,VWS V14.01,2013-08-03 02:22:00,
2013-08-02 21:27:00,89.2,68.7,29.87,SSE,162,5.0,7.0,51,0.00,,SKC,0.00,VWS V14.01,2013-08-03 02:27:00,
2013-08-02 21:30:00,89.3,68.8,29.87,SSE,162,0.0,9.0,51,0.00,,SKC,0.00,VWS V14.01,2013-08-03 02:30:00,
2013-08-02 21:32:00,88.9,69.0,29.87,SSE,161,3.0,8.0,52,0.00,,SKC,0.00,VWS V14.01,2013-08-03 02:32:00,
2013-08-02 21:37:00,88.6,69.3,29.88,SSE,159,6.0,10.0,53,0.00,,SKC,0.00,VWS V14.01,2013-08-03 02:37:00,
2013-08-02 21:40:00,88.7,68.8,29.87,SSE,160,6.0,8.0,52,0.00,,SKC,0.00,VWS V14.01,2013-08-03 02:40:00,
2013-08-02 21:42:00,88.3,69.0,29.88,SSE,161,0.0,10.0,53,0.00,,SKC,0.00,VWS V14.01,2013-08-03 02:42:00,
2013-08-02 21:47:00,87.9,69.2,29.88,SSE,161,0.0,5.0,54,0.00,,SKC,0.00,VWS V14.01,2013-08-03 02:47:00,
2013-08-02 21:50:00,88.1,69.4,29.88,SSE,161,3.0,10.0,54,0.00,,SKC,0.00,VWS V14.01,2013-08-03 02:50:00,
2013-08-02 21:52:00,87.5,69.4,29.88,SSE,162,2.0,13.0,55,0.00,,SKC,0.00,VWS V14.01,2013-08-03 02:52:00,
2013-08-02 21:57:00,87.2,68.5,29.88,SSE,159,3.0,12.0,54,0.00,,SKC,0.00,VWS V14.01,2013-08-03 02:57:00,
2013-08-02 22:00:00,87.2,68.5,29.88,SSE,161,0.0,13.0,54,0.00,,SKC,0.00,VWS V14.01,2013-08-03 03:00:00,
2013-08-02 22:02:00,86.8,68.2,29.88,SSE,165,0.0,16.0,54,0.00,,SKC,0.00,VWS V14.01,2013-08-03 03:02:00,
2013-08-02 22:07:00,86.6,68.0,29.89,SSE,167,0.0,3.0,54,0.00,,SKC,0.00,VWS V14.01,2013-08-03 03:07:00,
2013-08-02 22:10:00,86.7,68.1,29.88,SSE,163,0.0,16.0,54,0.00,,SKC,0.00,VWS V14.01,2013-08-03 03:10:00,
2013-08-02 22:12:00,86.4,68.3,29.89,SSE,163,0.0,7.0,55,0.00,,SKC,0.00,VWS V14.01,2013-08-03 03:12:00,
2013-08-02 22:17:00,86.1,68.6,29.89,SSE,165,1.0,7.0,56,0.00,,SKC,0.00,VWS V14.01,2013-08-03 03:17:00,
2013-08-02 22:20:00,86.2,68.2,29.89,SSE,166,0.0,9.0,55,0.00,,SKC,0.00,VWS V14.01,2013-08-03 03:20:00,
2013-08-02 22:22:00,85.9,68.4,29.89,SSE,165,0.0,7.0,56,0.00,,SKC,0.00,VWS V14.01,2013-08-03 03:22:00,
2013-08-02 22:27:00,85.7,68.7,29.89,SSE,165,1.0,6.0,57,0.00,,SKC,0.00,VWS V14.01,2013-08-03 03:27:00,
2013-08-02 22:30:00,85.8,68.8,29.89,SSE,165,0.0,7.0,57,0.00,,SKC,0.00,VWS V14.01,2013-08-03 03:30:00,
2013-08-02 22:32:00,85.5,69.1,29.89,SSE,165,7.0,7.0,58,0.00,,SKC,0.00,VWS V14.01,2013-08-03 03:32:00,
2013-08-02 22:37:00,85.3,69.4,29.90,SSE,165,0.0,8.0,59,0.00,,SKC,0.00,VWS V14.01,2013-08-03 03:37:00,
2013-08-02 22:40:00,85.3,68.9,29.89,SSE,165,0.0,7.0,58,0.00,,SKC,0.00,VWS V14.01,2013-08-03 03:40:00,
2013-08-02 22:42:00,85.1,69.2,29.90,SSE,166,0.0,8.0,59,0.00,,SKC,0.00,VWS V14.01,2013-08-03 03:42:00,
2013-08-02 22:47:00,84.9,69.5,29.90,SSE,166,0.0,2.0,60,0.00,,SKC,0.00,VWS V14.01,2013-08-03 03:47:00,
2013-08-02 22:50:00,85.0,69.6,29.90,SSE,166,2.0,8.0,60,0.00,,SKC,0.00,VWS V14.01,2013-08-03 03:50:00,
2013-08-02 22:52:00,84.7,69.3,29.90,SSE,166,0.0,4.0,60,0.00,,SKC,0.00,VWS V14.01,2013-08-03 03:52:00,
2013-08-02 22:57:00,84.6,69.7,29.90,SSE,166,0.0,0.0,61,0.00,,SKC,0.00,VWS V14.01,2013-08-03 03:57:00,
2013-08-02 23:00:00,84.6,69.7,29.90,SSE,166,0.0,4.0,61,0.00,,SKC,0.00,VWS V14.01,2013-08-03 04:00:00,
2013-08-02 23:01:00,84.5,70.1,29.90,SSE,166,0.0,5.0,62,0.00,,SKC,0.00,VWS V14.01,2013-08-03 04:01:00,
2013-08-02 23:06:00,84.2,70.2,29.91,SSE,166,0.0,1.0,63,0.00,,SKC,0.00,VWS V14.01,2013-08-03 04:06:00,
2013-08-02 23:10:00,84.2,70.2,29.90,SSE,166,0.0,5.0,63,0.00,,SKC,0.00,VWS V14.01,2013-08-03 04:10:00,
2013-08-02 23:11:00,84.0,70.5,29.91,SSE,166,0.0,1.0,64,0.00,,SKC,0.00,VWS V14.01,2013-08-03 04:11:00,
2013-08-02 23:16:00,83.8,70.3,29.91,SSE,166,0.0,0.0,64,0.00,,SKC,0.00,VWS V14.01,2013-08-03 04:16:00,
2013-08-02 23:20:00,83.8,70.3,29.91,SSE,166,0.0,1.0,64,0.00,,SKC,0.00,VWS V14.01,2013-08-03 04:20:00,
2013-08-02 23:21:00,83.6,71.1,29.92,SSE,165,0.0,5.0,66,0.00,,SKC,0.00,VWS V14.01,2013-08-03 04:21:00,
2013-08-02 23:26:00,83.4,71.3,29.92,SSE,165,0.0,1.0,67,0.00,,SKC,0.00,VWS V14.01,2013-08-03 04:26:00,
2013-08-02 23:30:00,83.4,71.3,29.92,SSE,165,0.0,5.0,67,0.00,,SKC,0.00,VWS V14.01,2013-08-03 04:30:00,
2013-08-02 23:32:00,83.2,71.6,29.92,SSE,165,0.0,11.0,68,0.00,,SKC,0.00,VWS V14.01,2013-08-03 04:32:00,
2013-08-02 23:37:00,83.0,71.8,29.93,SSE,165,0.0,7.0,69,0.00,,SKC,0.00,VWS V14.01,2013-08-03 04:37:00,
2013-08-02 23:40:00,83.0,71.8,29.92,SSE,165,0.0,11.0,69,0.00,,SKC,0.00,VWS V14.01,2013-08-03 04:40:00,
2013-08-02 23:41:00,82.8,72.0,29.93,SSE,165,0.0,9.0,70,0.00,,SKC,0.00,VWS V14.01,2013-08-03 04:41:00,
2013-08-02 23:47:00,82.6,72.2,29.93,SSE,164,2.0,9.0,71,0.00,,SKC,0.00,VWS V14.01,2013-08-03 04:47:00,
2013-08-02 23:50:00,82.6,72.2,29.93,SSE,165,0.0,10.0,71,0.00,,SKC,0.00,VWS V14.01,2013-08-03 04:50:00,
2013-08-02 23:52:00,82.4,72.1,29.93,SSE,163,0.0,9.0,71,0.00,,SKC,0.00,VWS V14.01,2013-08-03 04:52:00,
2013-08-02 23:57:00,82.3,72.4,29.93,SSE,165,0.0,4.0,72,0.00,,SKC,0.00,VWS V14.01,2013-08-03 04:57:00,